Tracking 28091 objects as of 30-Sep-2023
HD Live streaming from Space Station
objects crossing your sky now

SL-8 DEB

Track SL-8 DEB now!
10-day predictions


NORAD ID: 21174
Int'l Code: 1991-009AM
Perigee: 1,469.2 km
Apogee: 1,912.9 km
Inclination: 74.1 °
Period: 120.1 minutes
Semi major axis: 8062 km
RCS: 0.0735 m2 (small)
Launch date: February 12, 1991
Source: Commonwealth of Independent States (former USSR) (CIS)
Launch site: PLESETSK MISSILE AND SPACE COMPLEX (PKMTR)

Note: This is SATELLITE DEBRIS
Your satellite tracking list
Your tracking list is empty




NASA's NSSDC Master Catalog

Two Line Element Set (TLE):
1 21174U 91009AM  23272.45756139  .00000026  00000-0  43361-3 0  9998
2 21174  74.0861 250.3834 0275199 140.3342  24.6576 11.99316312425599
Source of the keplerian elements: AFSPC